Location: Quedlinburg
(51.7921°N, 11.1414°E)
Time: 06:08:21
(UTC+02:00)

BEESAT - Pass Details

Date: 22 March 2026
Orbit: 683 x 693 km, 98.4° (Epoch: 17 April)

Event Time Altitude Azimuth Distance (km) Brightness Sun altitude
Rises 00:36:45 0° 10° (N) 3,065 ? -37.6°
Reaches altitude 10° 00:39:04 10° 5° (N) 2,143 ? -37.5°
Enters shadow 00:40:29 19° 358° (N) 1,613 ? -37.5°
